Location: Sternwarte Stuttgart
(48.7670°N, 9.1830°E)
Time: 01:08:39
(UTC+01:00)

Cosmos 2369 Rocket - Pass Details

Date: 24 January 2019
Orbit: 829 x 852 km, 71.0° (Epoch: 17 February)

Event Time Altitude Azimuth Distance (km) Brightness Sun altitude
Exits shadow 04:44:49 41° 29° (NNE) 1,212 3.1 -32.5°
Drops below altitude 10° 04:48:26 10° 29° (NNE) 2,478 5.0 -31.9°
Sets 04:50:53 0° 29° (NNE) 3,414 5.8 -31.5°
